Date String (YYYY-MM-DD hh:mm:ss) UTC,Instrument flags,absolute air pressure of the measurement (hPa),sample flow rate (lpm),inlet stack bypass flow (lpm),air temperature of the measurement (°C),ambient temperature measured by the external sensor (°C),aerosol sample conditioner tube jacket temperature (°C),OPC LED temperature (°C),internal box temperature (°C),relative humidity of the measurement (%),span deviation,mass concentration of particles derived from Lorenz-Mie calculation of OPC scattering (μg/m³),mass concentration of particles derived from Lorenz-Mie calculation of OPC scattering (μg/m³),mass concentration of particles derived from Lorenz-Mie calculation of OPC scattering (μg/m³)
DateTimeUTC,F1_M11,P_M11,Q1_M11,Q2_M11,T1_M11,T2_M11,T3_M11,T4_M11,T5_M11,U1_M11,ZSPAN_M11,X0_M11,X2_M11,X1_M11
2024-03-06 13:00:00,SystemResetWarning,0821.9,5.00,000.00,018.3,017.5,000.0,026.8,020.0,18.3,0000.0,0018.55,0005.84,0004.60
2024-03-06 13:01:00,SystemResetWarning,0821.8,5.00,000.00,018.3,017.5,000.0,026.9,020.0,18.3,0000.0,0019.46,0005.90,0004.66
2024-03-06 13:02:00,SystemResetWarning,0821.8,5.00,000.00,018.3,017.5,000.0,026.9,020.0,18.4,0000.0,0018.72,0005.96,0004.70
2024-03-06 13:03:00,SystemResetWarning,0821.8,5.00,000.00,018.3,017.5,000.0,026.9,020.0,18.4,0000.0,0018.99,0006.01,0004.74
2024-03-06 13:04:00,SystemResetWarning,0821.8,5.00,000.00,018.4,017.9,000.0,027.0,020.3,18.5,0001.2,0020.52,0006.09,0004.78
2024-03-06 13:05:00,SystemResetWarning,0821.9,5.00,000.00,018.5,018.6,000.0,027.0,020.7,18.4,0000.0,0021.11,0006.12,0004.79
2024-03-06 13:06:00,SystemResetWarning,0822.0,4.98,000.00,018.7,018.7,000.0,027.0,020.8,18.3,0000.0,0021.36,0006.14,0004.80
2024-03-06 13:07:00,SystemResetWarning,0822.0,5.02,000.00,018.7,018.6,000.0,027.0,020.7,18.2,0000.0,0022.59,0006.12,0004.83
2024-03-06 13:08:00,SystemResetWarning,0822.0,5.01,000.00,018.7,018.5,000.0,027.0,020.6,18.1,0000.0,0023.06,0006.13,0004.84
2024-03-06 13:09:00,SystemResetWarning,0821.9,4.99,000.00,018.6,018.4,000.0,027.0,020.5,18.1,0000.0,0023.11,0006.14,0004.87
2024-03-06 13:10:00,SystemResetWarning,0821.9,4.99,000.00,018.6,018.3,000.0,027.0,020.4,18.0,0000.0,0022.11,0006.13,0004.87
2024-03-06 13:11:00,SystemResetWarning,0821.9,5.00,000.00,018.6,018.2,000.0,027.0,020.3,17.6,0000.0,0021.92,0006.12,0004.86
2024-03-06 13:12:00,SystemResetWarning,0821.9,5.01,000.00,018.6,018.1,000.0,027.0,020.3,17.7,0000.0,0021.77,0006.06,0004.83
2024-03-06 13:13:00,SystemResetWarning,0822.0,5.01,000.00,018.6,018.1,000.0,027.0,020.3,18.0,0000.0,0021.54,0006.05,0004.79
2024-03-06 13:14:00,SystemResetWarning,0821.9,5.00,000.00,018.5,018.0,000.0,027.0,020.3,18.1,0000.0,0020.92,0006.02,0004.76
2024-03-06 13:15:00,SystemResetWarning,0821.9,4.98,000.00,018.5,018.0,000.0,027.0,020.2,17.9,0000.0,0019.41,0005.91,0004.68
2024-03-06 13:16:00,SystemResetWarning,0821.9,5.01,000.00,018.5,017.9,000.0,027.0,020.2,18.2,0000.0,0018.57,0005.77,0004.59
2024-03-06 13:17:00,SystemResetWarning,0821.9,5.01,000.00,018.5,017.9,000.0,027.0,020.2,18.4,0000.0,0017.31,0005.65,0004.53
2024-03-06 13:18:00,SystemResetWarning,0821.9,5.00,000.00,018.5,017.9,000.0,027.0,020.2,18.5,0000.0,0016.15,0005.65,0004.50
2024-03-06 13:19:00,SystemResetWarning,0822.0,4.99,000.00,018.5,017.8,000.0,026.9,020.2,18.6,0000.0,0016.56,0005.63,0004.49
2024-03-06 13:20:00,SystemResetWarning,0821.9,5.00,000.00,018.5,017.8,000.0,027.0,020.2,18.6,0000.0,0016.87,0005.63,0004.47
2024-03-06 13:21:00,SystemResetWarning,0821.8,5.01,000.00,018.5,017.8,000.0,026.9,020.2,18.6,0000.0,0016.69,0005.62,0004.46
2024-03-06 13:22:00,SystemResetWarning,0821.8,5.01,000.00,018.4,017.8,000.0,026.9,020.1,18.5,0000.0,0015.92,0005.62,0004.46
2024-03-06 13:23:00,SystemResetWarning,0821.8,5.00,000.00,018.4,017.7,000.0,026.9,020.1,18.4,0000.0,0015.20,0005.66,0004.45
2024-03-06 13:24:00,SystemResetWarning,0821.8,4.99,000.00,018.4,017.7,000.0,026.9,020.1,18.4,0000.0,0015.07,0005.64,0004.44
2024-03-06 13:25:00,SystemResetWarning,0821.8,5.00,000.00,018.4,017.6,000.0,026.9,020.0,18.6,0000.0,0015.26,0005.66,0004.44
2024-03-06 13:26:00,SystemResetWarning,0821.8,5.00,000.00,018.4,017.6,000.0,026.9,020.0,18.7,0000.0,0018.06,0005.71,0004.47
2024-03-06 13:27:00,SystemResetWarning,0821.8,5.01,000.00,018.3,017.6,000.0,026.9,020.0,18.8,0000.0,0019.16,0005.75,0004.51
2024-03-06 13:28:00,SystemResetWarning,0821.9,5.01,000.00,018.3,017.6,000.0,026.9,020.0,18.6,0000.0,0019.72,0005.84,0004.52
2024-03-06 13:29:00,SystemResetWarning,0821.9,5.00,000.00,018.3,017.6,000.0,026.9,020.0,18.2,0000.0,0019.24,0005.87,0004.56
2024-03-06 13:30:00,SystemResetWarning,0821.9,4.99,000.00,018.3,017.6,000.0,026.9,020.0,18.1,0000.0,0018.57,0005.90,0004.61
2024-03-06 13:31:00,SystemResetWarning,0821.8,4.99,000.00,018.3,017.6,000.0,026.9,020.0,18.3,0000.0,0018.08,0005.91,0004.62
2024-03-06 13:32:00,SystemResetWarning,0821.8,5.00,000.00,018.3,017.6,000.0,026.9,020.0,18.4,0000.0,0017.99,0005.93,0004.63
2024-03-06 13:33:00,SystemResetWarning,0821.7,5.00,000.00,018.3,017.6,000.0,026.9,020.0,18.4,0000.8,0018.63,0006.01,0004.66
2024-03-06 13:34:00,SystemResetWarning,0821.8,5.01,000.00,018.3,017.6,000.0,026.9,020.0,18.3,0000.4,0018.58,0006.07,0004.73
2024-03-06 13:35:00,SystemResetWarning,0821.9,5.00,000.00,018.3,017.5,000.0,026.9,020.0,18.3,0000.5,0018.58,0006.15,0004.80
2024-03-06 13:36:00,SystemResetWarning,0822.0,5.01,000.00,018.3,017.5,000.0,026.9,020.0,18.0,0000.2,0019.60,0006.20,0004.85
2024-03-06 13:37:00,SystemResetWarning,0821.9,5.00,000.00,018.3,017.5,000.0,026.9,020.0,17.9,0002.6,0018.23,0006.27,0004.89
2024-03-06 13:38:00,SystemResetWarning,0821.9,5.00,000.00,018.3,017.5,000.0,026.9,020.0,18.0,0002.7,0017.75,0006.35,0004.95
2024-03-06 13:39:00,SystemResetWarning,0821.8,5.00,000.00,018.3,017.5,000.0,026.8,020.0,18.1,0002.7,0017.55,0006.39,0004.99
2024-03-06 13:40:00,SystemResetWarning,0821.9,5.00,000.00,018.3,017.5,000.0,026.8,020.0,18.1,0002.9,0017.78,0006.41,0004.97
2024-03-06 13:41:00,SystemResetWarning,0822.0,5.00,000.00,018.3,017.5,000.0,026.9,020.0,18.2,0002.7,0017.48,0006.45,0004.97
2024-03-06 13:42:00,SystemResetWarning,0822.1,5.00,000.00,018.4,018.0,000.0,027.0,020.4,18.1,0002.2,0018.15,0006.48,0005.00
2024-03-06 13:43:00,SystemResetWarning,0822.0,5.00,000.00,018.6,018.9,000.0,027.1,020.9,17.7,0000.5,0019.16,0006.45,0005.01
2024-03-06 13:44:00,SystemResetWarning,0822.0,5.00,000.00,018.8,019.2,000.0,027.1,021.1,17.4,0000.0,0018.37,0006.32,0005.01
2024-03-06 13:45:00,SystemResetWarning,0821.9,4.99,000.00,018.8,019.1,000.0,027.1,021.0,17.5,0002.2,0017.83,0006.20,0004.92
2024-03-06 13:46:00,SystemResetWarning,0822.0,5.00,000.00,018.8,018.9,000.0,027.1,020.8,17.5,0000.0,0017.59,0006.03,0004.81
2024-03-06 13:47:00,SystemResetWarning,0821.9,5.01,000.00,018.8,018.7,000.0,027.1,020.8,17.5,0000.0,0016.68,0005.97,0004.76
2024-03-06 13:48:00,SystemResetWarning,0821.9,5.01,000.00,018.8,018.6,000.0,027.1,020.7,17.5,0000.0,0015.74,0005.91,0004.72
2024-03-06 13:49:00,SystemResetWarning,0821.9,4.99,000.00,018.8,018.5,000.0,027.1,020.7,17.6,0000.0,0015.50,0005.85,0004.68
2024-03-06 13:50:00,SystemResetWarning,0821.9,5.00,000.00,018.8,018.4,000.0,027.1,020.6,17.7,0000.0,0015.48,0005.77,0004.66
2024-03-06 13:51:00,SystemResetWarning,0822.0,5.00,000.00,018.8,018.4,000.0,027.1,020.6,17.8,0000.0,0015.21,0005.71,0004.64
2024-03-06 13:52:00,SystemResetWarning,0821.9,5.01,000.00,018.8,018.3,000.0,027.1,020.5,17.8,0000.0,0015.52,0005.61,0004.57
2024-03-06 13:53:00,SystemResetWarning,0821.8,5.00,000.00,018.7,018.2,000.0,027.1,020.5,17.9,0000.0,0014.66,0005.48,0004.47
2024-03-06 13:54:00,SystemResetWarning,0821.8,5.00,000.00,018.7,018.1,000.0,027.1,020.4,17.9,0000.0,0013.63,0005.40,0004.40
2024-03-06 13:55:00,SystemResetWarning,0822.0,4.99,000.00,018.7,018.0,000.0,027.1,020.3,18.0,0000.0,0013.70,0005.40,0004.36
2024-03-06 13:56:00,SystemResetWarning,0821.9,4.99,000.00,018.6,018.0,000.0,027.1,020.3,18.0,0000.0,0013.89,0005.44,0004.38
2024-03-06 13:57:00,SystemResetWarning,0821.8,5.00,000.00,018.6,017.9,000.0,027.1,020.2,18.2,0000.0,0014.32,0005.52,0004.42
2024-03-06 13:58:00,SystemResetWarning,0821.8,5.01,000.00,018.5,017.9,000.0,027.1,020.2,18.3,0000.0,0013.34,0005.50,0004.41
2024-03-06 13:59:00,SystemResetWarning,0822.0,5.01,000.00,018.5,017.8,000.0,027.1,020.2,18.3,0000.0,0012.92,0005.43,0004.36
